Location: Bretagne
(43.8474°N, 0.4650°W)
Time: 06:35:46
(UTC+00:00)

COSMO-SKYMED 1 - Pass Details

Date: 15 January 2026
Orbit: 578 x 579 km, 97.9° (Epoch: 10 February)

Event Time Altitude Azimuth Distance (km) Brightness Sun altitude
Exits shadow 17:23:35 - 40° (NE) 2,324 5.0 -6.3°
Reaches altitude 10° 17:25:06 10° 54° (NE) 1,898 4.4 -6.5°
Maximum altitude 17:27:36 16° 92° (E) 1,562 4.1 -6.9°
Drops below altitude 10° 17:30:04 10° 129° (SE) 1,887 4.8 -7.3°
Sets 17:32:59 0° 152° (SSE) 2,779 5.8 -7.8°
